Regional Weather Roundup
Issued by NWS

Home | Current Version | Previous Version | Graphics & Text | Print | Product List | Glossary On
Versions: 1 2 3 4 5 6 7 8 9 10 11 12 13 14 15 16 17 18 19 20 21 22 23 24 25 26 27 28 29 30 31 32 33 34 35 36 37 38 39 40 41 42 43 44 45 46 47 48 49 50
000
ASUS44 KMEG 061710
RWRTN
TENNESSEE HOURLY STATE WEATHER ROUNDUP
NATIONAL WEATHER SERVICE MEMPHIS TN
1200 PM CDT MON JUL 06 2015

TNZ002-004-019-021-049-052-054-088>092-061800-
WEST TENNESSEE

CITY           SKY/WX    TMP DP  RH WIND       PRES   REMARKS
MEMPHIS INTL   CLOUDY    81  73  76 S14       30.14S
NWS MEMPHIS      N/A     79 N/A N/A MISG        N/A
JACKSON        CLOUDY    81  72  74 SW13      30.13R
DYERSBURG        N/A    N/A N/A N/A MISG        N/A
PARIS          SUNNY     81  70  69 S9        30.12S
LEXINGTON      SUNNY     82  70  65 SW10      30.13R
$$

TNZ008-025-027-028-033-062-065-066-061800-
NORTH MIDDLE TENNESSEE

CITY           SKY/WX    TMP DP  RH WIND       PRES   REMARKS
NASHVILLE      MOSUNNY   83  71  67 VRB7      30.15R
CLARKSVILLE    MOSUNNY   83  70  64 S9        30.12S
SMYRNA         MOSUNNY   85  72  65 S9        30.16R HX  91
COOKEVILLE     PTSUNNY   84  73  70 W5        30.16S HX  91
CROSSVILLE     MOSUNNY   79  66  64 VRB6      30.21S
$$

TNZ061-075-076-078-094-096-097-061800-
SOUTH MIDDLE TENNESSEE

CITY           SKY/WX    TMP DP  RH WIND       PRES   REMARKS
FAYETTEVILLE   CLOUDY    77  66  69 W9        30.18R
TULLAHOMA      PTSUNNY   79  68  69 SW5       30.19R
WINCHESTER     MOSUNNY   81  70  69 W8        30.18R
MCMINNVILLE    SUNNY     82  72  69 SW9       30.18R
COLUMBIA       PTSUNNY   82  73  74 SW8       30.15R
SHELBYVILLE    MOSUNNY   82  72  69 SW6       30.17
$$

TNZ017-018-042-046-047-061800-
NORTHEAST TENNESSEE

CITY           SKY/WX    TMP DP  RH WIND       PRES   REMARKS
TRI CITIES     PTSUNNY   79  65  62 W10       30.17F
ELIZABETHTON   MOSUNNY   75  64  69 SW9       30.18F
$$

TNZ012-013-036-069-073-074-061800-
CENTRAL EAST TENNESSEE

CITY           SKY/WX    TMP DP  RH WIND       PRES   REMARKS
KNOXVILLE      PTSUNNY   79  69  71 SW7       30.17S
OAK RIDGE      PTSUNNY   83  68  60 VRB6      30.17S
GATLINBURG     MOSUNNY   81  66  61 W9        30.16S
MORRISTOWN       N/A     77  70  78 SW7       30.19S
$$

TNZ083-085-099-061800-
SOUTHEAST TENNESSEE

CITY           SKY/WX    TMP DP  RH WIND       PRES   REMARKS
CHATTANOOGA    PTSUNNY   83  68  60 W3        30.16F
$$

SKY/WX REPORTED AS FAIR MEANS FEW OR NO CLOUDS BELOW
12 THOUSAND FEET.




USA.gov is the U.S. government's official web portal to all federal, state and local government web resources and services.